FW9314 Weather Reports


time (UTC)temp
C
wind
direction
speed
KPH
gust
KPH
rain 1hr
cm
rain 24hr
cm
rain mn
cm
humidity
%
barometer
mb
20260507192058 21 274 8.0 17.7 0.00 0.00 0.00 40 1012.3
20260507191602 21 266 4.8 17.7 0.00 0.00 0.00 42 1012.4
20260507191226 21 292 3.2 11.3 0.00 0.00 0.00 45 1012.5
20260507190651 21 253 4.8 11.3 0.00 0.00 0.00 42 1012.7
20260507190108 20 166 3.2 12.9 0.00 0.00 0.00 47 1012.7
20260507185824 20 283 4.8 12.9 0.00 0.00 0.00 42 1012.7
20260507185057 20 292 4.8 16.1 0.00 0.00 0.00 44 1012.8
20260507184609 20 106 3.2 16.1 0.00 0.00 0.00 46 1012.9
20260507184058 20 128 4.8 16.1 0.00 0.00 0.00 46 1013.1
20260507183557 20 136 3.2 19.3 0.00 0.00 0.00 47 1013.0
20260507183106 20 300 4.8 19.3 0.00 0.00 0.00 45 1013.2
20260507182611 20 295 4.8 22.5 0.00 0.00 0.00 49 1013.1
20260507182058 20 235 3.2 22.5 0.00 0.00 0.00 46 1013.4
20260507181607 20 217 4.8 22.5 0.00 0.00 0.00 47 1013.3
20260507181057 20 205 3.2 11.3 0.00 0.00 0.00 47 1013.4
20260507180600 20 353 3.2 11.3 0.00 0.00 0.00 48 1013.3
20260507180106 19 112 3.2 11.3 0.00 0.00 0.00 49 1013.4
20260507175558 19 260 3.2 16.1 0.00 0.00 0.00 50 1013.5
20260507175058 19 239 4.8 16.1 0.00 0.00 0.00 49 1013.6
20260507174609 18 96 4.8 16.1 0.00 0.00 0.00 50 1013.8
20260507174101 18 75 3.2 12.9 0.00 0.00 0.00 51 1013.7
20260507173559 18 291 6.4 17.7 0.00 0.00 0.00 50 1013.9
20260507173103 18 298 4.8 17.7 0.00 0.00 0.00 51 1014.0
20260507172600 18 274 3.2 14.5 0.00 0.00 0.00 48 1014.1
20260507172057 18 241 4.8 14.5 0.00 0.00 0.00 51 1014.2
20260507171613 18 136 4.8 12.9 0.00 0.00 0.00 52 1014.4
20260507171058 18 101 4.8 12.9 0.00 0.00 0.00 51 1014.4
20260507170558 18 276 3.2 17.7 0.00 0.00 0.00 53 1014.7
20260507170100 18 250 4.8 17.7 0.00 0.00 0.00 52 1014.7
20260507165600 18 271 3.2 12.9 0.00 0.00 0.00 53 1014.7
20260507165059 17 316 4.8 19.3 0.00 0.00 0.00 53 1014.7
20260507164612 17 23 6.4 19.3 0.00 0.00 0.00 56 1015.0
20260507164058 17 279 4.8 14.5 0.00 0.00 0.00 53 1014.9
20260507163609 17 275 4.8 14.5 0.00 0.00 0.00 55 1014.9
20260507163059 17 253 3.2 16.1 0.00 0.00 0.00 54 1015.0
20260507162600 17 221 6.4 17.7 0.00 0.00 0.00 54 1015.1
20260507162058 17 272 4.8 19.3 0.00 0.00 0.00 56 1015.1
20260507161614 16 255 4.8 19.3 0.00 0.00 0.00 55 1015.2
20260507161106 16 291 6.4 17.7 0.00 0.00 0.00 54 1015.4
20260507160558 16 281 3.2 14.5 0.00 0.00 0.00 53 1015.4
20260507155557 16 297 4.8 14.5 0.00 0.00 0.00 56 1015.5
20260507155058 16 218 4.8 17.7 0.00 0.00 0.00 55 1015.5
20260507154556 16 290 3.2 20.9 0.00 0.00 0.00 58 1015.5
20260507154059 16 257 6.4 20.9 0.00 0.00 0.00 56 1015.6
20260507153601 16 86 4.8 17.7 0.00 0.00 0.00 57 1015.7
20260507153102 16 248 6.4 24.1 0.00 0.00 0.00 57 1015.6
20260507152558 16 228 3.2 24.1 0.00 0.00 0.00 59 1015.5
20260507152057 16 267 3.2 12.9 0.00 0.00 0.00 58 1015.6
20260507151556 15 259 3.2 14.5 0.00 0.00 0.00 59 1015.8
20260507151057 15 277 3.2 14.5 0.00 0.00 0.00 60 1015.9
20260507150558 15 290 3.2 17.7 0.00 0.00 0.00 60 1016.0
20260507150109 15 311 4.8 19.3 0.00 0.00 0.00 61 1016.1
20260507145559 15 266 4.8 19.3 0.00 0.00 0.00 60 1016.1
20260507145057 15 263 3.2 12.9 0.00 0.00 0.00 63 1016.1
20260507144600 14 246 3.2 9.7 0.00 0.00 0.00 63 1016.3
20260507144055 14 256 1.6 6.4 0.00 0.00 0.00 64 1016.4
20260507143557 13 266 1.6 9.7 0.00 0.00 0.00 66 1016.5
20260507143106 13 283 1.6 9.7 0.00 0.00 0.00 68 1016.3
20260507142558 13 283 3.2 9.7 0.00 0.00 0.00 68 1016.4
20260507142058 13 155 3.2 9.7 0.00 0.00 0.00 70 1016.5
20260507141601 12 221 3.2 8.0 0.00 0.00 0.00 70 1016.4
20260507141057 12 280 0.0 8.0 0.00 0.00 0.00 72 1016.5
20260507140558 12 250 1.6 9.7 0.00 0.00 0.00 73 1016.5
20260507140057 11 0 1.6 11.3 0.00 0.00 0.00 74 1016.6
20260507135558 11 229 1.6 11.3 0.00 0.00 0.00 74 1016.5
20260507135057 11 290 3.2 12.9 0.00 0.00 0.00 76 1016.5
20260507134606 11 274 3.2 12.9 0.00 0.00 0.00 76 1016.5
20260507134122 10 274 3.2 9.7 0.00 0.00 0.00 78 1016.6
20260507133557 10 0 3.2 9.7 0.00 0.00 0.00 80 1016.7
20260507133059 10 254 1.6 9.7 0.00 0.00 0.00 80 1016.7
20260507132554 10 311 3.2 8.0 0.00 0.00 0.00 81 1016.7
20260507132054 9 252 1.6 8.0 0.00 0.00 0.00 83 1016.7
20260507131612 9 290 1.6 8.0 0.00 0.00 0.00 84 1016.7
20260507131057 8 277 0.0 6.4 0.00 0.00 0.00 86 1016.7
20260507130557 8 299 0.0 6.4 0.00 0.00 0.00 87 1016.7
20260507130104 8 0 0.0 3.2 0.00 0.00 0.00 89 1016.7
20260507125558 7 279 0.0 4.8 0.00 0.00 0.00 91 1016.8
20260507125058 7 277 0.0 4.8 0.00 0.00 0.00 93 1016.8
20260507124600 7 0 0.0 1.6 0.00 0.00 0.00 95 1016.7
20260507124100 6 0 0.0 0.0 0.00 0.00 0.00 95 1016.7
20260507123600 6 0 0.0 0.0 0.00 0.00 0.00 96 1016.6
20260507123108 6 0 0.0 0.0 0.00 0.00 0.00 96 1016.5
20260507122559 6 0 0.0 0.0 0.00 0.00 0.00 96 1016.6
20260507122058 6 0 0.0 1.6 0.00 0.00 0.00 96 1016.7
20260507121608 5 0 0.0 1.6 0.00 0.00 0.00 96 1016.8
20260507121059 5 56 0.0 0.0 0.00 0.00 0.00 95 1016.8
20260507120558 5 0 0.0 0.0 0.00 0.00 0.00 95 1016.9
20260507120059 5 0 0.0 0.0 0.00 0.00 0.00 94 1016.6
20260507115557 5 0 0.0 0.0 0.00 0.00 0.00 94 1016.7
20260507115057 5 0 0.0 0.0 0.00 0.00 0.00 93 1016.6
20260507114602 5 0 0.0 0.0 0.00 0.00 0.00 93 1016.6
20260507114058 5 0 0.0 0.0 0.00 0.00 0.00 92 1016.7
20260507113557 5 0 0.0 0.0 0.00 0.00 0.00 92 1016.5
20260507113100 5 0 0.0 0.0 0.00 0.00 0.00 92 1016.5
20260507112558 5 0 0.0 0.0 0.00 0.00 0.00 92 1016.5
20260507112058 5 0 0.0 0.0 0.00 0.00 0.00 92 1016.5
20260507111600 5 0 0.0 0.0 0.00 0.00 0.00 92 1016.5
20260507111059 5 0 0.0 0.0 0.00 0.00 0.00 91 1016.5
20260507110559 5 0 0.0 0.0 0.00 0.00 0.00 91 1016.5
20260507110114 5 0 0.0 0.0 0.00 0.00 0.00 91 1016.7
20260507105558 6 0 0.0 0.0 0.00 0.00 0.00 91 1016.6
20260507105100 6 0 0.0 0.0 0.00 0.00 0.00 91 1016.6
20260507104557 6 0 0.0 0.0 0.00 0.00 0.00 91 1016.5
20260507104056 6 0 0.0 0.0 0.00 0.00 0.00 91 1016.7
20260507103559 6 0 0.0 0.0 0.00 0.00 0.00 91 1016.7
20260507103059 6 0 0.0 0.0 0.00 0.00 0.00 90 1016.7
20260507102558 6 0 0.0 0.0 0.00 0.00 0.00 90 1016.6
20260507102057 6 0 0.0 0.0 0.00 0.00 0.00 89 1016.5
20260507101601 6 0 0.0 0.0 0.00 0.00 0.00 89 1016.6
20260507101058 6 0 0.0 1.6 0.00 0.00 0.00 89 1016.6
20260507100556 6 0 0.0 1.6 0.00 0.00 0.00 89 1016.6
20260507100106 6 56 0.0 0.0 0.00 0.00 0.00 88 1016.7
20260507095558 6 0 0.0 0.0 0.00 0.00 0.00 87 1016.7
20260507095059 7 0 0.0 0.0 0.00 0.00 0.00 87 1016.8
20260507094613 7 0 0.0 0.0 0.00 0.00 0.00 86 1016.6
20260507094058 7 0 0.0 0.0 0.00 0.00 0.00 86 1016.6
20260507093557 7 0 0.0 0.0 0.00 0.00 0.00 86 1016.7
20260507093101 7 0 0.0 0.0 0.00 0.00 0.00 85 1016.7
20260507092558 7 0 0.0 3.2 0.00 0.00 0.00 85 1016.7
20260507092057 7 0 0.0 3.2 0.00 0.00 0.00 85 1016.6
20260507091640 7 295 0.0 3.2 0.00 0.00 0.00 84 1016.8
20260507091057 7 308 0.0 3.2 0.00 0.00 0.00 84 1016.8
20260507090556 7 307 0.0 3.2 0.00 0.00 0.00 84 1016.9
20260507090106 7 316 0.0 3.2 0.00 0.00 0.00 84 1017.0
20260507085557 7 290 0.0 3.2 0.00 0.00 0.00 84 1017.0
20260507085100 7 287 0.0 3.2 0.00 0.00 0.00 84 1017.0
20260507084559 7 302 0.0 1.6 0.00 0.00 0.00 84 1017.0
20260507084101 7 0 0.0 1.6 0.00 0.00 0.00 83 1017.1
20260507083558 7 0 0.0 3.2 0.00 0.00 0.00 83 1017.2
20260507083100 7 0 0.0 3.2 0.00 0.00 0.00 83 1017.0
20260507082559 7 277 0.0 3.2 0.00 0.00 0.00 84 1017.2
20260507082058 7 277 0.0 3.2 0.00 0.00 0.00 85 1017.2
20260507081601 7 0 0.0 0.0 0.00 0.00 0.00 86 1017.2
20260507081059 7 0 0.0 0.0 0.00 0.00 0.00 87 1017.2
20260507080559 7 0 0.0 0.0 0.00 0.00 0.00 86 1017.2
20260507080059 7 0 0.0 0.0 0.00 0.00 0.00 86 1017.2
20260507075557 7 0 0.0 1.6 0.00 0.00 0.00 87 1017.2
20260507075059 7 0 0.0 1.6 0.00 0.00 0.00 87 1017.2
20260507074600 7 0 0.0 0.0 0.00 0.00 0.00 86 1017.2
20260507074058 7 0 0.0 0.0 0.00 0.00 0.00 86 1017.3
20260507073559 7 0 0.0 0.0 0.00 0.00 0.00 86 1017.3
20260507073101 7 0 0.0 0.0 0.00 0.00 0.00 86 1017.3
20260507072559 7 0 0.0 0.0 0.00 0.00 0.00 84 1017.2
20260507072103 7 0 0.0 0.0 0.00 0.00 0.00 83 1017.3
20260507071559 7 0 0.0 0.0 0.00 0.00 0.00 82 1017.4
20260507071101 7 0 0.0 0.0 0.00 0.00 0.00 83 1017.4
20260507070602 7 0 0.0 0.0 0.00 0.00 0.00 82 1017.5
20260507070108 8 0 0.0 0.0 0.00 0.00 0.00 83 1017.4
20260507065558 8 0 0.0 1.6 0.00 0.00 0.00 83 1017.6
20260507065059 7 0 0.0 1.6 0.00 0.00 0.00 83 1017.6
20260507064600 7 0 0.0 0.0 0.00 0.00 0.00 80 1017.7
20260507064059 8 0 0.0 0.0 0.00 0.00 0.00 80 1017.7
20260507063559 8 0 0.0 0.0 0.00 0.00 0.00 80 1017.7
20260507063100 8 0 0.0 0.0 0.00 0.00 0.00 79 1017.9
20260507062557 8 0 0.0 0.0 0.00 0.00 0.00 78 1017.8
20260507062059 8 0 0.0 0.0 0.00 0.00 0.00 78 1017.8
20260507061559 9 0 0.0 0.0 0.00 0.00 0.00 77 1017.8
20260507061100 9 0 0.0 0.0 0.00 0.00 0.00 77 1017.9
20260507060558 10 0 0.0 0.0 0.00 0.00 0.00 77 1017.9
20260507060110 10 0 0.0 0.0 0.00 0.00 0.00 76 1017.9
20260507055600 10 0 0.0 0.0 0.00 0.00 0.00 76 1018.0
20260507055057 10 0 0.0 1.6 0.00 0.00 0.00 75 1018.0
20260507054600 10 0 0.0 3.2 0.00 0.00 0.00 74 1018.1
20260507054059 10 274 0.0 3.2 0.00 0.00 0.00 73 1018.2
20260507053600 10 0 0.0 0.0 0.00 0.00 0.00 73 1018.0
20260507053100 10 0 0.0 0.0 0.00 0.00 0.00 72 1018.0
20260507052559 10 0 0.0 1.6 0.00 0.00 0.00 72 1018.0
20260507052059 10 0 0.0 1.6 0.00 0.00 0.00 72 1018.0
20260507051559 10 280 0.0 1.6 0.00 0.00 0.00 72 1018.1
20260507051057 10 0 0.0 3.2 0.00 0.00 0.00 71 1018.0
20260507050558 10 280 1.6 3.2 0.00 0.00 0.00 71 1017.9
20260507050103 10 283 0.0 1.6 0.00 0.00 0.00 72 1017.9
20260507045558 10 0 0.0 1.6 0.00 0.10 0.00 72 1018.1
20260507045058 10 295 0.0 1.6 0.00 0.10 0.00 72 1018.0
20260507044602 10 285 0.0 1.6 0.00 0.10 0.00 72 1018.2
20260507044059 10 0 0.0 1.6 0.00 0.10 0.00 71 1018.1
20260507043558 10 0 0.0 1.6 0.00 0.10 0.00 71 1018.1
20260507043104 10 0 0.0 1.6 0.00 0.10 0.00 71 1018.1
20260507042559 9 0 0.0 1.6 0.00 0.10 0.00 73 1018.2
20260507042058 9 0 0.0 1.6 0.00 0.10 0.00 73 1018.2
20260507041602 9 0 0.0 1.6 0.00 0.10 0.00 73 1018.2
20260507041058 9 270 0.0 1.6 0.00 0.10 0.00 73 1018.1
20260507040559 8 0 0.0 1.6 0.00 0.10 0.00 77 1018.3
20260507040107 8 0 0.0 0.0 0.00 0.10 0.00 79 1018.3
20260507035558 8 0 0.0 0.0 0.00 0.15 0.00 79 1018.3
20260507035058 8 0 0.0 0.0 0.00 0.15 0.00 80 1018.4
20260507034601 9 0 0.0 0.0 0.00 0.15 0.00 80 1018.2
20260507034058 9 0 0.0 0.0 0.00 0.15 0.00 80 1018.0
20260507033557 8 0 0.0 0.0 0.00 0.15 0.00 80 1018.0
20260507033058 8 0 0.0 0.0 0.00 0.15 0.00 81 1018.1
20260507032559 8 0 0.0 0.0 0.00 0.15 0.00 81 1018.3
20260507032058 8 0 0.0 0.0 0.00 0.15 0.00 82 1018.2
20260507031559 8 0 0.0 0.0 0.00 0.15 0.00 81 1018.3
20260507031058 8 0 0.0 0.0 0.00 0.15 0.00 78 1018.2
20260507030557 8 0 0.0 0.0 0.00 0.15 0.00 77 1018.2
20260507030100 8 0 0.0 0.0 0.00 0.15 0.00 77 1018.2
20260507025558 8 0 0.0 0.0 0.00 0.15 0.00 76 1018.3
20260507025058 9 0 0.0 0.0 0.00 0.15 0.00 74 1018.2
20260507024609 9 0 0.0 0.0 0.00 0.15 0.00 74 1018.0
20260507024058 9 0 0.0 0.0 0.00 0.15 0.00 74 1017.8
20260507023557 9 0 0.0 0.0 0.00 0.15 0.00 74 1017.8
20260507023056 9 0 0.0 0.0 0.00 0.15 0.00 74 1017.9
20260507022559 9 0 0.0 0.0 0.00 0.15 0.00 75 1017.9
20260507022059 9 0 0.0 0.0 0.00 0.15 0.00 72 1017.7
20260507021600 10 0 0.0 0.0 0.00 0.15 0.00 71 1017.7
20260507021058 10 0 0.0 0.0 0.00 0.15 0.00 70 1017.8
20260507020558 10 0 0.0 0.0 0.00 0.15 0.00 69 1017.7
20260507020059 10 0 0.0 0.0 0.00 0.15 0.00 66 1017.6
20260507015558 10 0 0.0 0.0 0.00 0.15 0.00 57 1017.6
20260507015057 10 0 0.0 0.0 0.00 0.15 0.00 51 1017.4
20260507014601 10 0 0.0 0.0 0.00 0.15 0.00 49 1017.4
20260507014058 11 0 0.0 0.0 0.00 0.15 0.00 48 1017.3
20260507013600 11 0 0.0 0.0 0.00 0.15 0.00 47 1017.3
20260507013104 11 0 0.0 0.0 0.00 0.15 0.00 46 1017.2
20260507012558 11 0 0.0 0.0 0.00 0.15 0.00 45 1017.2
20260507012058 12 0 0.0 0.0 0.00 0.15 0.00 44 1017.1
20260507011605 12 0 0.0 0.0 0.00 0.15 0.00 43 1017.2
20260507011058 12 0 0.0 0.0 0.00 0.15 0.00 42 1017.3
20260507010559 13 0 0.0 0.0 0.00 0.15 0.00 42 1017.1
20260507010115 13 0 0.0 0.0 0.00 0.15 0.00 41 1017.2
20260507005559 13 0 0.0 1.6 0.00 0.15 0.00 40 1017.3
20260507005100 14 0 0.0 1.6 0.00 0.15 0.00 40 1017.2
20260507004609 14 0 0.0 1.6 0.00 0.15 0.00 40 1017.2
20260507004058 14 0 0.0 1.6 0.00 0.15 0.00 39 1017.2
20260507003559 15 0 0.0 1.6 0.00 0.15 0.00 38 1017.2
20260507003057 15 0 0.0 3.2 0.00 0.15 0.00 37 1017.2
20260507002558 15 0 0.0 4.8 0.00 0.15 0.00 36 1017.2
20260507002059 16 340 0.0 4.8 0.00 0.15 0.00 34 1017.1
20260507001601 16 0 1.6 4.8 0.00 0.15 0.00 34 1017.1
20260507001058 17 0 0.0 6.4 0.00 0.15 0.00 33 1017.1
20260507000602 17 0 0.0 6.4 0.00 0.15 0.00 33 1017.2
20260507000105 17 323 1.6 4.8 0.00 0.15 0.00 33 1017.2
20260506235559 17 248 1.6 8.0 0.00 0.15 0.00 32 1017.1
20260506235100 17 274 1.6 8.0 0.00 0.15 0.00 31 1017.2
20260506234614 17 256 3.2 6.4 0.00 0.15 0.00 32 1017.2
20260506234102 17 204 1.6 6.4 0.00 0.15 0.00 31 1017.2
20260506233600 18 13 1.6 4.8 0.00 0.15 0.00 33 1017.3
20260506233104 18 304 0.0 1.6 0.00 0.15 0.00 31 1017.2
20260506232558 17 0 0.0 4.8 0.00 0.15 0.00 31 1017.2
20260506232058 17 0 0.0 6.4 0.00 0.15 0.00 33 1017.3
20260506231601 17 65 0.0 6.4 0.00 0.15 0.00 32 1017.2
20260506231100 17 19 1.6 6.4 0.00 0.15 0.00 34 1017.3
20260506230558 17 305 1.6 6.4 0.00 0.15 0.00 32 1017.4
20260506230059 17 264 1.6 6.4 0.00 0.15 0.00 32 1017.4
20260506225559 17 279 0.0 4.8 0.00 0.15 0.00 32 1017.3
20260506225059 17 101 1.6 4.8 0.00 0.15 0.00 30 1017.3
20260506224559 17 82 0.0 4.8 0.00 0.15 0.00 36 1017.3
20260506224059 16 0 0.0 12.9 0.00 0.15 0.00 34 1017.3
20260506223557 16 349 4.8 12.9 0.00 0.15 0.00 34 1017.3
20260506223100 16 355 1.6 6.4 0.00 0.15 0.00 33 1017.3
20260506222600 16 36 3.2 8.0 0.00 0.15 0.00 37 1017.3
20260506222058 16 49 1.6 8.0 0.00 0.15 0.00 34 1017.3
20260506221605 16 298 3.2 8.0 0.00 0.15 0.00 33 1017.4
20260506221058 16 69 0.0 4.8 0.00 0.15 0.00 36 1017.5
20260506220601 16 310 0.0 4.8 0.00 0.15 0.00 36 1017.6
20260506220057 16 293 1.6 4.8 0.00 0.15 0.00 33 1017.5
20260506215601 16 0 0.0 4.8 0.00 0.15 0.00 35 1017.6
20260506215101 16 34 3.2 4.8 0.00 0.15 0.00 36 1017.8
20260506214607 16 338 0.0 8.0 0.00 0.15 0.00 36 1017.7
20260506214059 16 71 1.6 8.0 0.00 0.15 0.00 36 1017.7
20260506213558 16 72 1.6 8.0 0.00 0.15 0.00 33 1018.0
20260506213058 16 0 1.6 8.0 0.00 0.15 0.00 38 1018.1
20260506212559 16 218 3.2 12.9 0.00 0.15 0.00 32 1018.1
20260506212059 16 252 3.2 16.1 0.00 0.15 0.00 37 1018.1
20260506211600 16 323 3.2 16.1 0.00 0.15 0.00 37 1018.1
20260506211058 16 303 1.6 16.1 0.00 0.15 0.00 35 1018.2
20260506210559 16 320 3.2 8.0 0.00 0.15 0.00 32 1018.4
20260506210057 16 295 1.6 8.0 0.00 0.15 0.00 34 1018.7
20260506205558 16 315 3.2 11.3 0.00 0.15 0.00 34 1018.6
20260506205058 16 0 1.6 11.3 0.00 0.15 0.00 34 1018.5
20260506204616 16 67 3.2 6.4 0.00 0.15 0.00 34 1018.8
20260506204058 16 263 3.2 9.7 0.00 0.15 0.00 32 1018.7
20260506203559 16 82 1.6 9.7 0.00 0.15 0.00 33 1018.7
20260506203057 16 324 4.8 9.7 0.00 0.15 0.00 35 1019.0
20260506202559 16 316 1.6 9.7 0.00 0.15 0.00 34 1018.9
20260506202106 16 13 3.2 9.7 0.00 0.15 0.00 37 1018.9
20260506201601 16 323 3.2 8.0 0.00 0.15 0.00 36 1019.1
20260506201100 16 268 1.6 8.0 0.00 0.15 0.00 35 1019.0
20260506200558 16 298 3.2 8.0 0.00 0.15 0.00 37 1019.2
20260506200058 16 0 1.6 6.4 0.00 0.15 0.00 35 1019.1
20260506195600 16 124 1.6 8.0 0.00 0.15 0.00 36 1019.3
20260506195058 16 297 3.2 8.0 0.00 0.15 0.00 35 1019.2
20260506194559 16 253 3.2 6.4 0.00 0.15 0.00 39 1019.4
20260506194058 16 281 1.6 6.4 0.00 0.15 0.00 39 1019.4
20260506193558 16 292 1.6 6.4 0.00 0.15 0.00 37 1019.2
20260506193056 16 221 3.2 8.0 0.00 0.15 0.00 38 1019.3
20260506192559 16 0 3.2 9.7 0.00 0.15 0.00 37 1019.3